Regional Weather Roundup
Issued by NWS Albany, NY

Home | Current Version | Previous Version | Text Only | Print | Product List | Glossary On
Versions: 1 2 3 4 5 6 7 8 9 10 11 12 13 14 15 16 17 18 19 20 21 22 23 24 25 26 27 28 29 30 31 32 33 34 35 36 37 38 39 40 41 42 43 44 45 46 47 48 49 50
000
ASUS41 KALY 021210
RWRALY

NEW YORK STATE HOURLY WEATHER ROUNDUP
NATIONAL WEATHER SERVICE ALBANY NY
800 AM EDT TUE JUN 02 2015

NOTE: "FAIR" INDICATES FEW OR NO CLOUDS BELOW 12,000 FEET WITH NO
SIGNIFICANT WEATHER AND/OR NO OBSTRUCTIONS TO VISIBILITY.

NYZ032-033-038>043-046>054-057>066-NYZ062>081-021300-
EAST


CITY           SKY/WX    TMP DP  RH WIND       PRES   REMARKS
ALBANY         CLOUDY    51  47  86 N3        30.17R
GLENS FALLS    CLOUDY    50  46  86 NW6       30.18R
POUGHKEEPSIE   CLOUDY    50  47  89 N6        30.14S
NEWBURGH       LGT RAIN  48  48 100 NE7       30.15R FOG
MONTGOMERY     LGT RAIN  50  48  93 NE9       30.14R
WHITE PLAINS   LGT RAIN  49  46  90 NE6       30.13R FOG
ISLIP          CLOUDY    50  47  89 N18       30.09R
NEW YORK CITY  LGT RAIN  50  47  89 N12       30.13R VSB 1
CENTRAL PARK   CLOUDY    51  48  89 VRB6      30.16S FOG
$$

NYZ005>009-017-018-044>046-055-056-021300-
CENTRAL


CITY           SKY/WX    TMP DP  RH WIND       PRES   REMARKS
FULTON         CLOUDY    53  49  86 NE5       30.16R
SYRACUSE       CLOUDY    53  52  96 N7        30.16R
ROME           CLOUDY    50  48  93 E7        30.17R FOG
ELMIRA         CLOUDY    53  51  93 NE7       30.15R FOG
BINGHAMTON     FOG       50  50 100 N7        30.12R VSB 1
MONTICELLO     CLOUDY    46  45  93 E3        30.14R
$$

NYZ026>034-041>043-021300-
NORTH


CITY           SKY/WX    TMP DP  RH WIND       PRES   REMARKS
WATERTOWN      CLOUDY    53  51  93 N8        30.17R FOG
FORT DRUM      NOT AVBL
MASSENA        CLOUDY    51  48  89 N7        30.19R
SARANAC LAKE   CLOUDY    47  45  93 CALM      30.14S FOG
PLATTSBURGH    CLOUDY    50  47  89 SE6       30.19S
$$

NYZ001>004-010>016-019>021-021300-
WEST


CITY           SKY/WX    TMP DP  RH WIND       PRES   REMARKS
NIAGARA FALLS  PTSUNNY   52  46  80 NE7       30.19R
BUFFALO        PTSUNNY   51  46  83 NE8       30.20R
DUNKIRK        CLOUDY    52  48  86 NE9       30.18S
JAMESTOWN      CLOUDY    48  45  87 N9        30.17R
WELLSVILLE     FOG       47  46  97 NE7       30.17R VSB 1/4
ROCHESTER      DRIZZLE   51  50  96 N10       30.19R FOG
PENN YAN       CLOUDY    51  48  89 N8        30.17R
$$

             KEY
       WCI = WIND CHILL INDEX
       VSB = VISIBILITY
       HX  = HEAT INDEX
$$



USA.gov is the U.S. government's official web portal to all federal, state and local government web resources and services.